Left ArrowRight Arrow

31.31129, -92.44514

Hourly Observations for October 31, 2022

Temp ( °F °C ) Dew Point ( °F °C ) Humidity (%) Winds ( mph kmh ) Pressure ( in mb ) Visibility ( mi km ) Precip ( " mm )
12:53 am 00:53 Mostly Cloudy 62 16.7 57 13.9 84 84 Calm 29.98 1015 9 14 0.00 0.00
1:53 am 01:53 Cloudy with Mist and Fog 59 15 56 13.3 90 90 Calm 29.97 1015 6 10 0.00 0.00
2:53 am 02:53 Mostly Cloudy with Mist and Fog 60 15.6 57 13.9 90 90 Calm 29.97 1015 2 3 0.00 0.00
3:01 am 03:01 Partly Cloudy 60 15.6 57 13.9 90 90 Calm 29.96 1015 10 16 0.00 0.00
3:46 am 03:46 Mostly Clear 58 14.4 55 12.8 90 90 Calm 29.95 1014 10 16 0.00 0.00
3:53 am 03:53 Clear 58 14.4 56 13.3 93 93 Calm 29.96 1015 10 16 0.00 0.00
4:06 am 04:06 Cloudy with Fog 57 13.9 55 12.8 93 93 Calm 29.96 1015 0 0 0.00 0.00
4:15 am 04:15 Clear 56 13.3 55 12.8 97 97 Calm 29.96 1015 10 16 0.00 0.00
4:55 am 04:55 Cloudy with Fog 56 13.3 54 12.2 93 93 Calm 29.96 1015 0 0 0.00 0.00
5:14 am 05:14 Clear 56 13.3 54 12.2 93 93 Calm 29.96 1015 10 16 0.00 0.00
5:53 am 05:53 Clear 54 12.2 52 11.1 93 93 Calm 29.98 1015 10 16 0.00 0.00
6:53 am 06:53 Clear 54 12.2 51 10.6 90 90 Calm 29.98 1015 10 16 0.00 0.00
7:53 am 07:53 Sunny 53 11.7 51 10.6 93 93 Calm 30.01 1016 10 16 0.00 0.00
8:00 am 08:00 Partly Cloudy with Mist and Fog 54 12.2 52 11.1 93 93 Calm 30.00 1016 4 6 0.00 0.00
8:53 am 08:53 Sunny with Mist and Fog 59 15 57 13.9 93 93 Calm 30.04 1017 4 6 0.00 0.00
9:53 am 09:53 Sunny 66 18.9 59 15 78 78 Calm 30.06 1018 10 16 0.00 0.00
10:53 am 10:53 Sunny 72 22.2 58 14.4 61 61 Calm 30.06 1018 10 16 0.00 0.00
11:53 am 11:53 Sunny 75 23.9 56 13.3 51 51 W 6 9 30.05 1018 10 16 0.00 0.00
12:53 pm 12:53 Sunny 77 25 53 11.7 43 43 Calm 30.02 1017 10 16 0.00 0.00
1:53 pm 13:53 Sunny 76 24.4 52 11.1 43 43 VRB 5 7 30.00 1016 10 16 0.00 0.00
2:53 pm 14:53 Sunny 77 25 52 11.1 42 42 NW 8 13 29.98 1015 10 16 0.00 0.00
3:53 pm 15:53 Sunny 79 26.1 52 11.1 39 39 VRB 3 6 29.98 1015 10 16 0.00 0.00
4:53 pm 16:53 Sunny 79 26.1 52 11.1 39 39 VRB 3 6 29.98 1015 10 16 0.00 0.00
5:53 pm 17:53 Sunny 76 24.4 54 12.2 47 47 Calm 29.99 1016 10 16 0.00 0.00
6:53 pm 18:53 Clear 70 21.1 54 12.2 57 57 NNE 6 9 30.01 1016 10 16 0.00 0.00
7:53 pm 19:53 Clear 66 18.9 55 12.8 68 68 Calm 30.04 1017 10 16 0.00 0.00
8:53 pm 20:53 Clear 62 16.7 55 12.8 78 78 Calm 30.06 1018 10 16 0.00 0.00
9:53 pm 21:53 Clear 60 15.6 54 12.2 80 80 Calm 30.07 1018 10 16 0.00 0.00
10:53 pm 22:53 Clear 59 15 54 12.2 83 83 Calm 30.09 1019 10 16 0.00 0.00
11:53 pm 23:53 Clear 56 13.3 54 12.2 93 93 Calm 30.09 1019 9 14 0.00 0.00

Powered by Vaisala Xweather